[[{"header":{"parameterUnit":"m.s-1","parameterCategory":1,"la1":30.2991,"la2":30.254,"lo1":-89.0895,"lo2":-89.0444,"dy":0.0017,"dx":0.0017,"nx":28,"ny":28,"refTime":"2024-08-13T03:00:00:Z","depth":0,"parameterNumber":2,"parameterNumberName":"U-component_of_WINDS"},"data":[0,0,0,0,0,0,0,0,0,0,0,0,0,0,0,0,0,0,0,0,0,0,0,0,0,0,0,0,0,0,0,0,0,0,0,0,0,0,0,0,0,0,0,0,0,0,0,0,0,0,0,0,0,0,0,0,0,0,1.6677,1.6679,0,1.6851,1.6853,1.6855,1.6899,1.6898,1.6897,1.6896,1.7078,1.7083,1.7089,0,0,0,0,0,0,0,0,0,0,0,0,0,1.6385,1.6391,1.6677,1.6679,1.6681,1.6851,1.6853,1.6856,1.6899,1.6898,1.6896,1.6895,1.7076,1.7083,1.709,0,0,0,0,0,0,0,0,0,0,0,0,0,1.6531,1.6392,1.6677,1.6723,1.6729,1.685,1.6853,1.6856,1.6899,1.6898,1.6896,1.6895,1.7073,1.7082,1.7091,1.7179,0,0,1.7118,1.7122,0,0,0,0,0,0,0,0,1.6523,1.6542,1.6714,1.672,1.6727,1.6852,1.6817,1.6965,1.69,1.6835,1.6896,1.6894,1.7004,1.7018,1.7055,1.7187,1.7195,1.7119,1.7124,1.7128,1.713,0,0,0,0,0,0,0,1.6513,1.6535,1.6746,1.6717,1.6725,1.6737,1.6756,1.6845,1.6927,1.6841,1.6844,1.6864,1.7007,1.7046,1.706,1.7198,1.7118,1.7126,1.7132,1.7135,1.7411,1.7413,0,0,0,0,0,0,1.6494,1.6526,1.6741,1.6751,1.6619,1.6743,1.6764,1.6813,1.6926,1.6942,1.6865,1.6865,1.7032,1.7049,1.7066,1.7176,1.7128,1.7136,1.7141,1.7409,1.7411,1.7413,0,0,0,0,0,0,1.6488,1.6513,1.6734,1.664,1.6669,1.675,1.6805,1.6818,1.6857,1.6945,1.696,1.689,1.7031,1.7054,1.715,1.7183,1.714,1.7148,1.7406,1.7409,1.7412,1.7396,0,0,0,0,0,0,1.6479,1.651,1.6544,1.664,1.6673,1.6813,1.6807,1.6822,1.6871,1.6873,1.6972,1.6986,1.7032,1.7137,1.7159,1.7194,1.7155,1.7404,1.7408,1.7411,1.7394,1.7398,1.7402,0,0,0,0,0,1.6468,1.6533,1.6545,1.6571,1.6717,1.6815,1.6834,1.6884,1.6874,1.6909,1.6965,1.6983,1.7176,1.7146,1.7171,1.721,1.7402,1.7407,1.7411,1.7392,1.7397,1.7402,0,0,0,0,0,0,1.644,1.6547,1.6561,1.6659,1.6727,1.6822,1.6868,1.6888,1.6962,1.6961,1.7021,1.7043,1.7135,1.7183,1.7147,1.7301,1.7289,1.7299,1.7266,1.7272,1.7275,1.7262,1.7162,0,0,0,0,0,1.6444,1.6514,1.6605,1.6682,1.6716,1.6785,1.683,1.6863,1.6937,1.6966,1.703,1.7102,1.7179,1.7228,1.7304,1.7402,1.7424,1.7441,1.7444,1.7447,1.7455,1.7509,1.7518,1.7428,1.7428,1.7428,0,0,1.6456,1.6523,1.6563,1.6678,1.6735,1.6807,1.681,1.6886,1.694,1.6978,1.7072,1.7122,1.7206,1.7303,1.7349,1.7346,1.7484,1.7453,1.7454,1.7461,1.7515,1.7523,1.7531,1.7431,1.7431,1.743,0,0,1.6512,1.657,1.664,1.6697,1.6783,1.6829,1.6846,1.6938,1.6971,1.7067,1.7097,1.7163,1.7294,1.7352,1.7399,1.7478,1.7497,1.7501,1.7521,1.7573,1.758,1.7587,1.7614,1.7623,1.7508,1.7508,1.7508,0,1.6515,1.6623,1.6674,1.6748,1.6798,1.6835,1.6907,1.696,1.7066,1.71,1.7095,1.7259,1.7319,1.743,1.7448,1.7486,1.7507,1.7489,1.7575,1.7582,1.7589,1.7616,1.7626,1.7508,1.7508,1.7508,1.7508,0,1.6622,1.6697,1.6744,1.6844,1.6899,1.6971,1.7034,1.7084,1.7112,1.7158,1.7255,1.7328,1.7418,1.7448,1.7476,1.7563,1.7558,1.7563,1.7552,1.7596,1.7622,1.7633,1.7508,1.7508,1.7508,1.7508,0,0,1.6665,1.6792,1.6808,1.6853,1.6951,1.701,1.7085,1.7172,1.7213,1.7286,1.735,1.746,1.7465,1.7518,1.7554,1.76,1.7656,1.76,1.7603,1.7607,1.7756,1.775,1.7761,1.767,1.7672,1.7674,1.7748,0,1.6732,1.6865,1.6913,1.7023,1.7092,1.7129,1.7194,1.7261,1.7307,1.7374,1.7425,1.7501,1.7503,1.7535,1.7583,1.7639,1.7687,1.7635,1.7731,1.7734,1.7707,1.7775,1.777,1.7836,1.7759,1.7761,1.7762,0,1.6828,1.69,1.7016,1.7104,1.7135,1.7193,1.7276,1.7339,1.7417,1.7447,1.7506,1.7538,1.7619,1.7603,1.7715,1.7678,1.7721,1.7755,1.7759,1.7769,1.7749,1.7786,1.7859,1.7868,1.7779,1.7777,1.7776,0,1.6846,1.6972,1.7058,1.7096,1.7201,1.7241,1.7287,1.7362,1.7411,1.7485,1.7518,1.76,1.7645,1.7709,1.7763,1.7747,1.787,1.7859,1.7897,1.7896,1.7921,1.7918,1.8,1.7949,1.7949,1.7949,1.7949,0,1.6915,1.6985,1.7067,1.7119,1.7198,1.7254,1.7331,1.7379,1.7446,1.751,1.7547,1.7606,1.7674,1.7742,1.7785,1.7871,1.7891,1.7918,1.7929,1.7914,1.7911,1.7942,1.7939,1.7952,1.7951,1.7951,1.795,0,1.6948,1.7006,1.7101,1.7193,1.7218,1.7272,1.7351,1.7404,1.7451,1.7531,1.7553,1.7628,1.771,1.777,1.7877,1.7905,1.7997,1.8008,1.797,1.7975,1.8009,1.8005,1.8113,1.813,1.8069,1.8069,1.807,0,1.6988,1.7042,1.7139,1.7183,1.7228,1.73,1.735,1.7407,1.7458,1.7549,1.7591,1.7675,1.7746,1.7875,1.794,1.8021,1.8034,1.8067,1.8047,1.803,1.8034,1.8029,1.8035,1.8069,1.8069,1.807,1.807,0,1.7052,1.7078,1.7148,1.7228,1.7286,1.7352,1.7419,1.7454,1.7523,1.7578,1.7661,1.7716,1.7824,1.7907,1.7995,1.8043,1.8068,1.8076,1.8089,1.8074,1.8049,1.8062,1.7976,1.8073,1.8073,1.8072,1.8072,1.8072,1.7089,1.7138,1.7214,1.7291,1.7347,1.7408,1.7462,1.7516,1.7586,1.7677,1.7707,1.7793,1.787,1.799,1.804,1.8109,1.8108,1.8127,1.8132,1.8135,1.8134,1.8039,1.8125,1.8125,1.8125,1.8125,1.8125,0,1.7154,1.7204,1.7274,1.7366,1.7427,1.7444,1.7519,1.7568,1.7643,1.7712,1.778,1.7876,1.7956,1.8027,1.8112,1.8153,1.8167,1.8173,1.817,1.8181,1.813,1.811,1.8161,1.8161,1.8161,1.8161,1.8161,1.8161,1.7195,1.7279,1.7314,1.7426,1.7477,1.756,1.7602,1.7659,1.7714,1.7818,1.7885,1.7931,1.8001,1.809,1.8165,1.8184,1.8213,1.8217,1.8238,1.8189,1.8185,1.8181,1.8162,1.8223,1.8223,1.8284,1.8284,1.8285]},{"header":{"parameterUnit":"m.s-1","parameterCategory":1,"la1":30.2991,"la2":30.254,"lo1":-89.0895,"lo2":-89.0444,"dy":0.0017,"dx":0.0017,"nx":28,"ny":28,"refTime":"2024-08-13T03:00:00:Z","depth":0,"parameterNumber":3,"parameterNumberName":"V-component_of_WINDS"},"data":[0,0,0,0,0,0,0,0,0,0,0,0,0,0,0,0,0,0,0,0,0,0,0,0,0,0,0,0,0,0,0,0,0,0,0,0,0,0,0,0,0,0,0,0,0,0,0,0,0,0,0,0,0,0,0,0,0,0,3.311,3.3109,0,3.3036,3.3035,3.3034,3.2958,3.2957,3.2956,3.2955,3.2874,3.2873,3.2872,0,0,0,0,0,0,0,0,0,0,0,0,0,3.3181,3.318,3.311,3.3109,3.3108,3.3036,3.3035,3.3034,3.2958,3.2957,3.2955,3.2954,3.2875,3.2873,3.2872,0,0,0,0,0,0,0,0,0,0,0,0,0,3.3133,3.318,3.311,3.3062,3.3056,3.3036,3.3035,3.3034,3.2958,3.2956,3.2955,3.2953,3.2875,3.2874,3.2872,3.2892,0,0,3.2866,3.2866,0,0,0,0,0,0,0,0,3.3136,3.313,3.307,3.3065,3.3059,3.3005,3.3031,3.2986,3.2958,3.2995,3.2955,3.2953,3.2919,3.2913,3.2903,3.2889,3.2885,3.2866,3.2865,3.2864,3.2864,0,0,0,0,0,0,0,3.3139,3.3133,3.3081,3.3069,3.3062,3.3042,3.3033,3.3022,3.2966,3.2992,3.2986,3.2979,3.2915,3.2905,3.29,3.2884,3.2866,3.2865,3.2864,3.2863,3.2881,3.2883,0,0,0,0,0,0,3.315,3.3136,3.3083,3.3078,3.3094,3.3042,3.3032,3.3024,3.2966,3.2956,3.298,3.2975,3.2908,3.2902,3.2897,3.2917,3.2864,3.2863,3.2862,3.288,3.2882,3.2883,0,0,0,0,0,0,3.3152,3.3146,3.3086,3.3106,3.3097,3.3042,3.3033,3.3023,3.3012,3.2958,3.2947,3.298,3.2907,3.29,3.2894,3.2913,3.2862,3.286,3.2878,3.288,3.2883,3.2957,0,0,0,0,0,0,3.3155,3.3148,3.3156,3.3107,3.3096,3.3086,3.3034,3.3023,3.301,3.3003,3.2954,3.2944,3.2905,3.2897,3.2892,3.2909,3.2859,3.2876,3.2879,3.2882,3.2952,3.2961,3.2969,0,0,0,0,0,3.3157,3.3179,3.3157,3.3151,3.3105,3.3087,3.3081,3.3036,3.3012,3.3019,3.2984,3.2946,3.2912,3.2897,3.2891,3.2908,3.2875,3.2878,3.2882,3.2949,3.2959,3.2969,0,0,0,0,0,0,3.3231,3.3172,3.3146,3.3153,3.3126,3.3074,3.3082,3.3049,3.3027,3.3022,3.2966,3.2956,3.2956,3.2931,3.2916,3.2924,3.2888,3.289,3.2941,3.2951,3.2959,3.2965,3.2858,0,0,0,0,0,3.3248,3.3239,3.3188,3.3198,3.3186,3.3137,3.3127,3.3095,3.3064,3.3052,3.3016,3.2987,3.2969,3.2958,3.2939,3.2948,3.2936,3.2957,3.2965,3.2972,3.2975,3.2977,3.2985,3.2895,3.2895,3.2895,0,0,3.3282,3.3249,3.3247,3.3212,3.3187,3.3178,3.3127,3.312,3.3113,3.305,3.3043,3.3016,3.2979,3.2981,3.298,3.296,3.2997,3.2976,3.2983,3.2981,3.2981,3.299,3.2997,3.2897,3.2897,3.2896,0,0,3.3341,3.3316,3.3322,3.3298,3.3262,3.3229,3.323,3.3184,3.3164,3.3156,3.3109,3.3098,3.3069,3.3044,3.3028,3.3077,3.3042,3.3072,3.3116,3.3118,3.3125,3.3131,3.3148,3.3155,3.3075,3.3075,3.3076,0,3.3389,3.3375,3.3329,3.3324,3.331,3.3254,3.3259,3.3238,3.3197,3.3187,3.3166,3.3128,3.3099,3.3094,3.3106,3.3095,3.3094,3.3078,3.3129,3.3134,3.3139,3.3154,3.3161,3.3079,3.3079,3.3079,3.3078,0,3.3435,3.3426,3.3435,3.3398,3.3384,3.3385,3.3337,3.3328,3.3297,3.3266,3.3258,3.3222,3.3194,3.319,3.3159,3.318,3.3169,3.3139,3.3101,3.3152,3.3166,3.3171,3.3085,3.3084,3.3083,3.3082,0,0,3.3538,3.3476,3.3479,3.3462,3.3417,3.3409,3.3406,3.338,3.3374,3.3347,3.3342,3.3319,3.329,3.3272,3.3237,3.324,3.328,3.3209,3.3207,3.3223,3.33,3.3324,3.3331,3.3257,3.3257,3.3258,3.3303,0,3.3589,3.3582,3.354,3.3545,3.3536,3.3482,3.3479,3.3451,3.3422,3.3408,3.3374,3.3359,3.3323,3.3312,3.3312,3.3276,3.3295,3.3272,3.325,3.325,3.3261,3.3338,3.3363,3.3407,3.3308,3.3309,3.331,0,3.3647,3.3626,3.3631,3.3586,3.358,3.3579,3.3551,3.354,3.3506,3.3484,3.3464,3.3425,3.3417,3.3382,3.337,3.3355,3.3343,3.3324,3.3325,3.3321,3.3283,3.3336,3.3421,3.3427,3.3318,3.3317,3.3317,0,3.3722,3.3693,3.3692,3.3679,3.3627,3.3627,3.3605,3.357,3.3557,3.3532,3.3523,3.3497,3.3483,3.3463,3.3418,3.3397,3.3411,3.3372,3.3391,3.3393,3.3397,3.3397,3.348,3.339,3.339,3.3389,3.3389,0,3.3783,3.3788,3.3725,3.3725,3.3728,3.3679,3.3683,3.3655,3.3624,3.3616,3.3568,3.3561,3.3502,3.3488,3.3452,3.3447,3.3441,3.3422,3.3413,3.3427,3.3429,3.3418,3.3414,3.3391,3.3391,3.339,3.339,0,3.3866,3.3825,3.382,3.3772,3.376,3.3764,3.3722,3.3718,3.3686,3.3676,3.3671,3.362,3.36,3.3554,3.3522,3.3498,3.3501,3.3484,3.3514,3.3508,3.353,3.3528,3.3608,3.3616,3.3522,3.3523,3.3523,0,3.3908,3.3911,3.3863,3.3855,3.3836,3.3823,3.381,3.3761,3.3749,3.371,3.3711,3.3688,3.3668,3.3639,3.3598,3.3572,3.3554,3.3584,3.355,3.3564,3.3554,3.3555,3.3554,3.3591,3.3593,3.3594,3.3595,0,3.3987,3.3966,3.395,3.3927,3.3913,3.3891,3.3867,3.3863,3.3807,3.3796,3.3777,3.3761,3.3729,3.3706,3.3675,3.365,3.3613,3.3606,3.3609,3.3623,3.364,3.3631,3.3534,3.3604,3.3603,3.3602,3.3602,3.3602,3.405,3.405,3.4017,3.4,3.3977,3.3956,3.395,3.3917,3.3901,3.3872,3.3844,3.3827,3.3792,3.3746,3.3724,3.3709,3.369,3.3694,3.3695,3.3697,3.3703,3.3643,3.3702,3.3702,3.3702,3.3702,3.3701,0,3.4126,3.4102,3.4087,3.4056,3.4043,3.401,3.3982,3.3972,3.3959,3.393,3.3911,3.3888,3.3866,3.3823,3.3797,3.3793,3.3775,3.3788,3.3787,3.3782,3.3722,3.3722,3.3802,3.3802,3.3802,3.3802,3.3802,3.3802,3.4164,3.4162,3.4137,3.4123,3.4098,3.4083,3.4069,3.4049,3.4025,3.4003,3.3985,3.3958,3.3923,3.3893,3.3871,3.3858,3.3851,3.3869,3.3851,3.3796,3.3786,3.3777,3.3777,3.3868,3.3868,3.3912,3.3913,3.3913]}]]